Location: Unspecified
(0.0000°N, 0.0000°E)
Time: 07:02:02
(UTC+00:00)

deb r/b Ablestar - Pass Details

Date: 09 March 2026
Orbit: 937 x 1853 km, 67.2° (Epoch: 14 April)

Event Time Altitude Azimuth Distance (km) Brightness Sun altitude
Rises 20:47:46 0° 329° (NNW) 5,115 ? -39.2°
Reaches altitude 10° 20:51:03 10° 325° (NW) 4,171 ? -40.0°
Maximum altitude 21:01:29 53° 252° (WSW) 2,182 ? -42.6°
Drops below altitude 10° 21:11:35 10° 178° (S) 4,015 ? -45.1°
Sets 21:14:43 0° 173° (S) 4,913 ? -45.9°
